Location: St Paul
(33.9360°N, 83.4200°W)
Time: 13:10:02
(UTC-05:00)

Cosmos 2112 Rocket - Pass Details

Date: 06 October 2017
Orbit: 757 x 787 km, 74.0° (Epoch: 11 December)

Event Time Altitude Azimuth Distance (km) Brightness Sun altitude
Rises 20:05:54 0° 180° (S) 3,260 7.3 -12.2°
Reaches altitude 10° 20:08:21 10° 175° (S) 2,333 6.4 -12.8°
Maximum altitude 20:13:26 47° 102° (ESE) 1,023 4.2 -13.8°
Drops below altitude 10° 20:18:30 10° 30° (NNE) 2,332 6.2 -14.9°
Sets 20:20:57 0° 24° (NNE) 3,259 7.0 -15.4°
